Location: Bir el Mhader
(16.3715°N, 9.1970°W)
Time: 05:14:09
(UTC+00:00)

Daily predictions for brighter satellites

Satellite Brightness Start Highest point End
(mag) Time Altitude Azimuth Time Altitude Azimuth Time Altitude Azimuth
Centaur D-1AR AC-36 3.8 03:33:48 65° E 03:33:48 65° E 03:59:55 10° ESE
Milstar 3 3.6 03:51:52 49° NE 03:51:52 49° NE 03:56:27 10° ENE
CZ-3B R/B 3.9 04:13:20 26° ESE 04:13:20 26° ESE 04:18:44 10° E
H-II Stage 2 3.3 04:24:00 69° SW 04:24:15 70° SSW 04:48:17 10° ESE
Skynet4D Del rocket 4.4 04:23:48 73° WNW 04:24:48 87° NNE 04:33:12 10° ESE
CZ-3C R/B 2.7 04:26:51 30° E 04:26:51 30° E 04:30:20 10° E
Atlas 2A Centaur Rocket 4.2 04:28:14 38° SSW 04:31:17 62° SE 05:09:32 10° ENE
Milstar 3 Cent rocket 2.9 04:32:14 47° N 04:32:14 47° N 04:36:37 10° NE
Aurora 2 Rocket 4.3 04:30:11 36° SSW 04:31:58 42° SSE 04:37:12 10° E
Cosmos 2181 Rocket 3.8 04:34:28 78° NW 04:34:45 81° W 04:40:54 10° S
GPS 2-14 Rocket1 3.6 04:46:40 43° ENE 04:46:40 43° ENE 04:49:24 10° E
GPS 2-15 Rocket1 3.3 04:53:19 57° SSW 04:53:46 60° SSE 04:58:24 10° E
Cosmos 292 Rocket 4.2 04:50:55 15° N 04:54:49 62° ENE 04:59:35 10° SSE
PAYLOAD A 3.9 04:50:16 10° N 04:55:15 64° WNW 05:00:24 10° SSW
Cosmos 1953 4.0 04:52:18 10° NNE 04:55:55 33° E 04:59:31 10° SSE
Stardust Del rocket 4.5 04:55:06 42° W 04:57:39 68° SSW 05:02:12 10° ESE
Okean 1-7 Rocket 3.7 04:56:34 10° S 05:00:57 75° E 05:05:22 10° N
CZ-4B R/B 2.5 04:59:19 10° NNE 05:03:04 90° ESE 05:06:42 10° SSW
Cosmos 1758 3.1 05:04:59 42° NNW 05:06:16 75° W 05:10:18 10° S
Meteor 1-31 Rocket 2.5 05:02:35 10° N 05:06:22 75° WNW 05:10:09 10° SSW
Cosmos 2154 Rocket 3.9 05:03:29 10° SSW 05:09:36 64° W 05:15:44 10° N
Cosmos 1470 2.6 05:11:14 47° NW 05:12:05 61° W 05:15:53 10° S
Cosmos 1741 Rocket 4.0 05:06:47 10° S 05:12:05 83° ESE 05:17:24 10° NNE
GPS 2-17 Rocket1 3.2 05:15:51 37° NW 05:17:13 53° N 05:21:27 10° E
SL-16 R/B 2.8 05:16:59 31° W 05:17:31 32° WNW 05:22:31 10° N
USA 238 DEB 3.9 05:13:08 13° NW 05:19:38 61° WSW 05:26:58 10° S
USA 238 3.9 05:13:10 13° NW 05:19:44 61° WSW 05:27:04 10° S
Cosmos 2228 3.9 05:15:56 10° N 05:20:01 50° E 05:24:07 10° SSE
CZ-2C R/B 2.8 05:16:03 10° N 05:20:50 41° WNW 05:25:31 10° SW
Cosmos 1484 Rocket 3.3 05:18:27 10° NNE 05:22:16 62° E 05:26:09 10° S
PSLV R/B 4.3 05:18:58 10° S 05:22:45 39° W 05:24:15 28° NW
Cosmos 921 Rocket 3.5 05:26:31 29° WNW 05:27:25 33° W 05:31:09 10° SSW
Cosmos 1726 Rocket 4.1 05:23:33 10° N 05:27:49 61° E 05:32:05 10° SSE
ISS -2.1 05:28:29 10° SSW 05:31:35 34° SE 05:34:40 10° ENE
Helios 1A Rocket 3.9 05:28:50 10° NNE 05:32:51 50° E 05:36:51 10° S
Ariane H10 4.4 05:34:57 10° SSW 05:37:15 15° SSE 05:41:14 10° SE
Meteor 1-16 Rocket 4.4 05:32:16 10° N 05:37:38 72° E 05:43:09 10° SSE
Cosmos 2341 Rocket 4.0 05:31:56 10° SSW 05:38:08 66° W 05:44:19 10° N
Delta 142 4.1 05:37:44 15° NW 05:41:21 50° NNE 05:45:22 10° E
Cosmos 2278 Rocket 2.4 05:36:59 10° NNW 05:42:24 48° WSW 05:47:48 10° S
NOSS 3-2 (A) 4.4 05:35:42 10° NW 05:43:39 51° WSW 05:51:52 10° S
Nadezhda 3 Rocket 4.0 05:37:35 10° N 05:43:53 72° W 05:50:07 10° S
Cosmos 1943 3.5 05:44:45 10° S 05:50:25 75° ESE 05:56:06 10° NNE
MOS 1-B 4.4 05:44:55 10° N 05:50:34 57° WNW 05:56:13 10° SSW
KORONAS-FOTON 3.9 05:47:37 10° SSW 05:51:16 47° W 05:54:53 10° N
Okean O Rocket 1.8 05:47:16 10° NNE 05:51:37 78° E 05:55:57 10° S
Cosmos 2058 Rocket 3.3 05:48:02 10° N 05:52:29 79° E 05:56:57 10° S
Cosmos 1437 Rocket 3.9 05:52:38 10° SW 05:55:29 20° W 05:58:18 10° NNW
DELTA 2 R/B (1) 4.4 05:51:17 12° W 05:55:38 31° NNW 06:00:31 10° NNE
SJ-12 4.0 05:51:45 10° N 05:55:47 57° WNW 05:59:48 10° SSW
Cosmos 1959 Rocket 4.4 05:51:53 10° S 05:57:58 83° W 06:04:06 10° N
SL-8 Rocket 4.0 05:54:02 10° SSW 06:00:09 61° W 06:06:14 10° N
USA 234 4.3 05:56:37 10° ESE 06:02:47 46° NE 06:08:56 10° NNW
GPS 2-04 Rocket1 3.2 05:59:11 10° WSW 06:03:15 47° NNW 06:07:17 10° NE
Hubble Space Telescope 3.6 06:02:47 10° S 06:04:48 13° SSE 06:06:50 10° ESE
Meteor 2-10 4.1 06:00:24 10° N 06:05:45 73° W 06:11:18 10° S
Meteor 2-5 Rocket 4.3 06:01:37 10° SSW 06:06:49 36° W 06:12:08 10° NNW
NOSS 3-2 (C) 4.4 06:01:04 10° NW 06:09:04 52° WSW 06:17:20 10° S
Cosmos 2366 rocket 4.0 06:03:24 10° SSW 06:09:40 68° W 06:15:59 10° N
